TimeCST,TemperatureF,Dew PointF,Humidity,Sea Level PressureIn,VisibilityMPH,Wind Direction,Wind SpeedMPH,Gust SpeedMPH,PrecipitationIn,Events,Conditions,WindDirDegrees,DateUTC
12:15 AM,41.0,30.2,65,29.46,10.0,West,20.7,33.4,N/A,,Overcast,270,2013-11-18 06:15:00
12:35 AM,41.0,30.2,65,29.47,10.0,West,18.4,29.9,N/A,,Overcast,270,2013-11-18 06:35:00
12:55 AM,41.0,30.2,65,29.48,10.0,West,18.4,28.8,N/A,,Overcast,280,2013-11-18 06:55:00
1:15 AM,41.0,30.2,65,29.48,10.0,West,20.7,32.2,N/A,,Overcast,270,2013-11-18 07:15:00
1:35 AM,39.2,28.4,65,29.49,10.0,West,25.3,33.4,N/A,,Overcast,270,2013-11-18 07:35:00
1:55 AM,39.2,28.4,65,29.50,10.0,West,23.0,39.1,N/A,,Overcast,270,2013-11-18 07:55:00
2:15 AM,39.2,28.4,65,29.51,10.0,West,24.2,31.1,N/A,,Overcast,270,2013-11-18 08:15:00
2:35 AM,39.2,28.4,65,29.52,10.0,West,23.0,31.1,N/A,,Overcast,270,2013-11-18 08:35:00
2:55 AM,37.4,28.4,70,29.53,10.0,West,23.0,29.9,N/A,,Overcast,270,2013-11-18 08:55:00
3:15 AM,37.4,26.6,65,29.55,10.0,West,18.4,32.2,N/A,,Overcast,270,2013-11-18 09:15:00
3:35 AM,37.4,26.6,65,29.55,10.0,West,21.9,36.8,N/A,,Overcast,270,2013-11-18 09:35:00
3:55 AM,37.4,26.6,65,29.56,10.0,West,20.7,33.4,N/A,,Overcast,270,2013-11-18 09:55:00
4:15 AM,37.4,26.6,65,29.57,10.0,West,25.3,34.5,N/A,,Overcast,280,2013-11-18 10:15:00
4:35 AM,35.6,26.6,70,29.58,10.0,West,27.6,34.5,N/A,,Overcast,270,2013-11-18 10:35:00
4:55 AM,35.6,24.8,65,29.59,10.0,West,20.7,32.2,N/A,,Overcast,280,2013-11-18 10:55:00
5:15 AM,35.6,24.8,65,29.59,10.0,WNW,24.2,35.7,N/A,,Overcast,290,2013-11-18 11:15:00
5:35 AM,35.6,24.8,65,29.60,10.0,WNW,20.7,34.5,N/A,,Overcast,290,2013-11-18 11:35:00
5:55 AM,35.6,24.8,65,29.61,10.0,WNW,21.9,35.7,N/A,,Overcast,300,2013-11-18 11:55:00
6:15 AM,35.6,24.8,65,29.62,10.0,WNW,26.5,35.7,N/A,,Overcast,300,2013-11-18 12:15:00
6:35 AM,33.8,21.2,60,29.65,10.0,WNW,26.5,35.7,N/A,,Overcast,300,2013-11-18 12:35:00
6:55 AM,33.8,21.2,60,29.66,10.0,WNW,29.9,38.0,N/A,,Overcast,300,2013-11-18 12:55:00
7:15 AM,33.8,19.4,56,29.68,10.0,WNW,27.6,38.0,N/A,,Overcast,290,2013-11-18 13:15:00
7:35 AM,33.8,19.4,56,29.69,10.0,WNW,18.4,36.8,N/A,,Overcast,290,2013-11-18 13:35:00
7:55 AM,33.8,19.4,56,29.70,10.0,West,26.5,34.5,N/A,,Overcast,280,2013-11-18 13:55:00
8:15 AM,33.8,17.6,52,29.72,10.0,West,20.7,34.5,N/A,,Mostly Cloudy,280,2013-11-18 14:15:00
8:35 AM,33.8,17.6,52,29.73,10.0,WNW,21.9,35.7,N/A,,Overcast,290,2013-11-18 14:35:00
8:55 AM,33.8,17.6,52,29.75,10.0,WNW,21.9,32.2,N/A,,Overcast,290,2013-11-18 14:55:00
9:15 AM,33.8,17.6,52,29.76,10.0,WNW,17.3,28.8,N/A,,Overcast,290,2013-11-18 15:15:00
9:35 AM,33.8,19.4,56,29.77,10.0,WNW,21.9,27.6,N/A,,Overcast,290,2013-11-18 15:35:00
9:55 AM,33.8,19.4,56,29.78,10.0,WNW,19.6,27.6,N/A,,Overcast,290,2013-11-18 15:55:00
10:15 AM,33.8,17.6,52,29.80,10.0,WNW,21.9,31.1,N/A,,Overcast,290,2013-11-18 16:15:00
10:35 AM,33.8,17.6,52,29.81,10.0,WNW,16.1,32.2,N/A,,Overcast,290,2013-11-18 16:35:00
10:55 AM,33.8,19.4,56,29.83,10.0,NW,20.7,29.9,N/A,,Overcast,310,2013-11-18 16:55:00
11:15 AM,33.8,19.4,56,29.84,10.0,WNW,18.4,28.8,N/A,,Overcast,300,2013-11-18 17:15:00
11:35 AM,33.8,19.4,56,29.85,10.0,WNW,17.3,32.2,N/A,,Overcast,290,2013-11-18 17:35:00
11:55 AM,33.8,19.4,56,29.86,10.0,WNW,20.7,27.6,N/A,,Overcast,290,2013-11-18 17:55:00
12:15 PM,33.8,19.4,56,29.87,10.0,WNW,18.4,27.6,N/A,,Overcast,290,2013-11-18 18:15:00
12:35 PM,33.8,19.4,56,29.88,10.0,WNW,21.9,33.4,N/A,,Overcast,300,2013-11-18 18:35:00
12:55 PM,33.8,19.4,56,29.89,10.0,WNW,20.7,29.9,N/A,,Overcast,300,2013-11-18 18:55:00
1:15 PM,33.8,19.4,56,29.90,10.0,WNW,23.0,28.8,N/A,,Overcast,300,2013-11-18 19:15:00
1:35 PM,33.8,17.6,52,29.91,10.0,WNW,20.7,29.9,N/A,,Overcast,300,2013-11-18 19:35:00
1:55 PM,33.8,19.4,56,29.92,10.0,NW,24.2,29.9,N/A,,Overcast,310,2013-11-18 19:55:00
2:15 PM,33.8,17.6,52,29.93,10.0,NW,17.3,26.5,N/A,,Overcast,310,2013-11-18 20:15:00
2:35 PM,33.8,17.6,52,29.95,10.0,NW,19.6,25.3,N/A,,Overcast,310,2013-11-18 20:35:00
2:55 PM,33.8,17.6,52,29.96,10.0,WNW,17.3,27.6,N/A,,Overcast,300,2013-11-18 20:55:00
3:15 PM,33.8,17.6,52,29.97,10.0,NW,20.7,27.6,N/A,,Overcast,310,2013-11-18 21:15:00
3:35 PM,33.8,17.6,52,29.99,10.0,WNW,17.3,28.8,N/A,,Overcast,300,2013-11-18 21:35:00
3:55 PM,33.8,17.6,52,30.00,10.0,WNW,20.7,24.2,N/A,,Overcast,300,2013-11-18 21:55:00
4:15 PM,33.8,17.6,52,30.01,10.0,NW,16.1,23.0,N/A,,Overcast,310,2013-11-18 22:15:00
4:35 PM,33.8,17.6,52,30.02,10.0,NW,16.1,21.9,N/A,,Overcast,310,2013-11-18 22:35:00
4:55 PM,33.8,17.6,52,30.03,10.0,NW,20.7,26.5,N/A,,Overcast,310,2013-11-18 22:55:00
5:15 PM,33.8,17.6,52,30.04,10.0,WNW,19.6,31.1,N/A,,Overcast,300,2013-11-18 23:15:00
5:35 PM,32.0,17.6,55,30.05,10.0,NW,20.7,27.6,N/A,,Overcast,310,2013-11-18 23:35:00
5:55 PM,32.0,17.6,55,30.06,10.0,NW,19.6,26.5,N/A,,Overcast,310,2013-11-18 23:55:00
6:15 PM,32.0,17.6,55,30.07,10.0,NW,19.6,27.6,N/A,,Overcast,310,2013-11-19 00:15:00
6:35 PM,32.0,17.6,55,30.08,10.0,NW,13.8,28.8,N/A,,Overcast,310,2013-11-19 00:35:00
6:55 PM,32.0,17.6,55,30.09,10.0,WNW,17.3,23.0,N/A,,Overcast,300,2013-11-19 00:55:00
7:15 PM,32.0,17.6,55,30.10,10.0,NW,18.4,24.2,N/A,,Overcast,310,2013-11-19 01:15:00
7:35 PM,32.0,17.6,55,30.11,10.0,NW,13.8,23.0,N/A,,Overcast,310,2013-11-19 01:35:00
7:55 PM,32.0,17.6,55,30.11,10.0,NW,12.7,-,N/A,,Overcast,310,2013-11-19 01:55:00
8:15 PM,30.2,17.6,60,30.12,10.0,NW,16.1,19.6,N/A,,Mostly Cloudy,320,2013-11-19 02:15:00
8:35 PM,30.2,15.8,55,30.13,10.0,NW,12.7,20.7,N/A,,Mostly Cloudy,310,2013-11-19 02:35:00
8:55 PM,30.2,17.6,60,30.14,10.0,NW,12.7,-,N/A,,Mostly Cloudy,310,2013-11-19 02:55:00
9:15 PM,30.2,15.8,55,30.15,10.0,NW,11.5,17.3,N/A,,Scattered Clouds,320,2013-11-19 03:15:00
9:35 PM,30.2,15.8,55,30.15,10.0,NW,13.8,18.4,N/A,,Partly Cloudy,310,2013-11-19 03:35:00
9:55 PM,30.2,15.8,55,30.16,10.0,NW,11.5,17.3,N/A,,Clear,320,2013-11-19 03:55:00
10:15 PM,30.2,15.8,55,30.16,10.0,NW,12.7,-,N/A,,Clear,310,2013-11-19 04:15:00
10:35 PM,30.2,15.8,55,30.17,10.0,NW,11.5,18.4,N/A,,Clear,320,2013-11-19 04:35:00
10:55 PM,30.2,15.8,55,30.18,10.0,NW,13.8,-,N/A,,Clear,310,2013-11-19 04:55:00
11:15 PM,30.2,15.8,55,30.19,10.0,NW,10.4,17.3,N/A,,Partly Cloudy,310,2013-11-19 05:15:00
11:35 PM,30.2,15.8,55,30.19,10.0,NW,11.5,-,N/A,,Scattered Clouds,310,2013-11-19 05:35:00
11:55 PM,30.2,17.6,60,30.20,10.0,WNW,10.4,-,N/A,,Mostly Cloudy,300,2013-11-19 05:55:00